Regional Weather Roundup
Issued by NWS Jackson, KY

Home | Current Version | Previous Version | Graphics & Text | Print | Product List | Glossary On
Versions: 1 2 3 4 5 6 7 8 9 10 11 12 13 14 15 16 17 18 19 20 21 22 23 24 25 26 27 28 29 30 31 32 33 34 35 36 37 38 39 40 41 42 43 44 45 46 47 48 49 50
000
ASUS43 KJKL 302110
RWRJKL

EAST KENTUCKY HOURLY WEATHER ROUNDUP
NATIONAL WEATHER SERVICE JACKSON KY
500 PM EDT THU OCT 30 2014

NOTE: "FAIR" INDICATES FEW OR NO CLOUDS BELOW 12,000 FEET WITH
NO SIGNIFICANT WEATHER AND/OR OBSTRUCTIONS TO VISIBILITY.

* THESE REPORTS ARE NOT UNDER NWS QUALITY CONTROL AND MAY NOT
  REPORT WEATHER SUCH AS PRECIPITATION AND FOG.

KYZ079-080-083-085-087-088-110-112-115-119-120-302200
...EASTERN KENTUCKY...

CITY           SKY/WX    TMP DP  RH WIND       PRES   REMARKS
JACKSON        SUNNY     54  34  46 CALM      30.05F
LONDON         SUNNY     58  36  43 N5        30.05S
SOMERSET*      SUNNY     55  36  47 CALM      30.06F
MONTICELLO*    SUNNY     59  38  45 CALM      30.07F
MIDDLESBORO*   SUNNY     59  38  47 N5        30.02F
HARLAN APT*    CLEAR     59  34  38 NW7       30.02S
HAZARD APT*    CLEAR     55  37  50 CALM      30.05F
BLACK MTN*       N/A     45  36  70 N3          N/A
PIKEVILLE APT* SUNNY     50  34  53 CALM      30.06S
BIG SANDY*     MOCLDY    50  36  59 NE6       30.07S
MOREHEAD APT*  PTCLDY    52  34  50 VRB3      30.09F
$$

KYZ035-036-041-042-044-050-067-078-099-302200
...CENTRAL KENTUCKY...

CITY           SKY/WX    TMP DP  RH WIND       PRES   REMARKS
MT STERLING*   SUNNY     50  36  57 CALM      30.09S
FLEMING/MASON* SUNNY     50  34  53 CALM      30.08F
DANVILLE*      SUNNY     52  36  54 E3        30.07F
RICHMOND*      SUNNY     52  36  54 N5        30.07S
LEXINGTON      SUNNY     55  36  48 NE5       30.06F
FRANKFORT      SUNNY     54  35  48 W3        30.05F
$$

KYZ091>093-OHZ055-061-077-WVZ005-015-034-035-042-302200
...SOUTHERN OHIO/WEST VIRGINIA...

CITY           SKY/WX    TMP DP  RH WIND       PRES   REMARKS
COVINGTON      MOSUNNY   54  33  45 CALM      30.06F
COLUMBUS       CLOUDY    49  34  56 NW5       30.08S
DAYTON         PTSUNNY   51  32  48 CALM      30.09F
WILMINGTON     SUNNY     53  31  42 CALM      30.07S
HUNTINGTON     CLOUDY    49  36  61 E3        30.07F
CHARLESTON     CLOUDY    49  34  56 CALM      30.08S
PINEVILLE*     SUNNY     51  38  60 MISG      30.09F
BECKLEY        SUNNY     45  31  58 N7        30.04S
BLUEFIELD      SUNNY     51  32  48 VRB5      30.03F
$$

VAZ002-007-008-TNZ017-027-036-066-071-302200
...SOUTHWEST VIRGINIA/EAST TENNESSEE...

CITY           SKY/WX    TMP DP  RH WIND       PRES   REMARKS
WISE*          SUNNY     54  34  47 N5        30.03S
JONESVILLE*    CLEAR     59  37  44 CALM      30.04S
ABINGDON*      SUNNY     58  38  48 W3        30.01F
BRISTOL        MOSUNNY   59  38  45 N7        30.02S
KNOXVILLE      SUNNY     60  40  47 CALM      30.01S
OAK RIDGE      SUNNY     63  39  41 S3        30.02F
CROSSVILLE     SUNNY     60  33  36 NW7       30.03F
NASHVILLE      MOSUNNY   63  38  39 N3        30.05F
$$

...KEY TO REMARKS...
VSB - VISIBILITY IN MILES
WCI - WIND CHILL INDEX
HX  - HEAT INDEX

$$



USA.gov is the U.S. government's official web portal to all federal, state and local government web resources and services.